This demonstration page uses our WeatherBlox Daily Observations layout. Learn more.

Left ArrowRight Arrow

34.74481, -87.66753

Hourly Observations for January 14, 2022

Temp ( °F °C ) Dew Point ( °F °C ) Humidity (%) Winds ( mph kmh ) Pressure ( in mb ) Visibility ( mi km ) Precip ( " mm )
12:53 am 00:53 Clear 35 1.7 30 -1.1 82 82 SSW 3 6 30.00 1016 10 16 0.00 0.00
1:53 am 01:53 Clear 36 2.2 32 0 86 86 Calm 30.01 1016 10 16 0.00 0.00
2:53 am 02:53 Clear 33 0.6 29 -1.7 85 85 WNW 3 6 30.01 1016 10 16 0.00 0.00
3:53 am 03:53 Clear 34 1.1 30 -1.1 85 85 Calm 30.02 1017 10 16 0.00 0.00
4:53 am 04:53 Clear 34 1.1 30 -1.1 85 85 Calm 30.03 1017 10 16 0.00 0.00
5:53 am 05:53 Clear 32 0 30 -1.1 92 92 Calm 30.04 1017 10 16 0.00 0.00
6:53 am 06:53 Clear 32 0 29 -1.7 88 88 Calm 30.06 1018 10 16 0.00 0.00
7:53 am 07:53 Sunny 32 0 30 -1.1 92 92 Calm 30.09 1019 10 16 0.00 0.00
8:53 am 08:53 Sunny 42 5.6 37 2.8 82 82 Calm 30.10 1019 10 16 0.00 0.00
9:53 am 09:53 Sunny 45 7.2 36 2.2 71 71 Calm 30.10 1019 10 16 0.00 0.00
10:53 am 10:53 Sunny 48 8.9 37 2.8 66 66 SE 3 6 30.08 1019 10 16 0.00 0.00
11:53 am 11:53 Sunny 51 10.6 37 2.8 59 59 VRB 3 6 30.06 1018 10 16 0.00 0.00
12:53 pm 12:53 Sunny 51 10.6 35 1.7 54 54 Calm 30.02 1017 10 16 0.00 0.00
1:53 pm 13:53 Sunny 52 11.1 35 1.7 53 53 Calm 30.02 1017 10 16 0.00 0.00
2:53 pm 14:53 Sunny 52 11.1 35 1.7 53 53 S 3 6 30.01 1016 10 16 0.00 0.00
3:53 pm 15:53 Sunny 51 10.6 36 2.2 56 56 S 3 6 30.02 1017 10 16 0.00 0.00
4:53 pm 16:53 Sunny 47 8.3 38 3.3 71 71 Calm 30.00 1016 10 16 0.00 0.00
5:53 pm 17:53 Clear 46 7.8 37 2.8 71 71 Calm 30.01 1016 10 16 0.00 0.00
6:53 pm 18:53 Clear 45 7.2 36 2.2 71 71 Calm 30.02 1017 10 16 0.00 0.00
7:53 pm 19:53 Clear 43 6.1 37 2.8 80 80 Calm 30.03 1017 10 16 0.00 0.00
8:53 pm 20:53 Clear 41 5 37 2.8 86 86 Calm 30.02 1017 10 16 0.00 0.00
9:53 pm 21:53 Clear 41 5 37 2.8 86 86 ESE 3 6 30.01 1016 10 16 0.00 0.00
10:53 pm 22:53 Mostly Clear 42 5.6 38 3.3 85 85 SE 5 7 30.01 1016 10 16 0.00 0.00
11:53 pm 23:53 Partly Cloudy 42 5.6 38 3.3 85 85 Calm 30.01 1016 10 16 0.00 0.00

Powered by AerisWeather